OPS 6432

operational
NORAD ID: 14112 Int'l Des: 1983-056 Owner: NRO/NRL Country: US
LEO

Über OPS 6432

Beschreibung wird geladen...

Live-Position

3D-Globus wird geladen...

Nächste Überflüge

Höhenverlauf

Altitude vs Time

uPlot chart will show altitude changes over time

Zweizeiliger Elementsatz

1 14112U 83056A 26062.49848036 .00003665 00000-0 39817-3 0 9990
2 14112 63.3028 104.9567 0700531 131.2966 235.0607 13.88326725 93627
Epoch: 3. März 2026 • Age: 27 hours

Aktueller Status

Höhe 1252.0 km
Geschwindigkeit 7.08 km/s
Subsatellitenpunkt -61.64°S, 144.62°E
Startdatum 9. Juni 1983
Alter 42.7 years
Typ other

Technische Details

Klassifizierung Payload
Masse 559.00 kg
Trockenmasse 559.00 kg
Gesamtmasse 590.00 kg
Länge 1.60 m
Durchmesser 1.50 m
Spannweite 2.70 m
Form Box + Ant
Hersteller MM
Bus-Typ NOSS MSD
Phasenstatus Attached in Orbit
Besitzer/Staat NRO/NRL/US

Große Konstellationen

Loading constellations...